Weather in Tetrino

Russia / Murmansk Oblast     66°03′49″N   38°14′25″E
temp.,
°C
wind,
m/s
gust,
m/s
humid.,
%
clouds,
%
prec.,
mm/h
press.,
hPa
HPBL,
m
23 september, thu
thu2300:00+7s69790 0.0 1023439
03:00+7s58813 0.0 1022349
06:00+7sse68830 0.0 1020341
09:00+8sse7108537 0.0 1018462
12:00+8sse8108065 0.0 1017486
15:00+8sse81182100 0.0 1015631
18:00+8sse8128864 0.1 1014605
21:00+8sse81189100 0.1 1014515
24 september, fri
fri2400:00+8sse7109254 0.0 1013465
03:00+7sse8109286 0.0 1012415
06:00+7se81086100 0.0 1012623
09:00+8ese81186100 0.0 1011510
12:00+9ese71189100 0.1 1010568
15:00+9se61192100 0.4 1009520
18:00+8ese71296100 1.8 1008652
21:00+8sse91296100 4.8 1007648
25 september, sat
sat2500:00+8sse91395100 1.3 1007602
03:00+8sse81196100 1.7 1007472
06:00+8sse7109698 0.3 1006419
09:00+8sse71094100 0.5 1006399
12:00+9sse6994100 0.1 1006380
15:00+9se5893100 0.4 1006277
18:00+8se5895100 0.1 1007327
21:00+8sse5992100 0.9 1007213
26 september, sun
sun2600:00+8s349278 0.1 100855
03:00+8se4593100 0.2 1010133
06:00+8ese4695100 0.0 1012179
09:00+8ese3493100 0.0 1014263
12:00+8ese3491100 0.0 1017236
15:00+8ese238899 0.0 1019161
18:00+8ese238899 0.0 102256
21:00+8ese118791 0.0 102410
27 september, mon
mon2700:00+8se1186100 0.0 102510
03:00+8wsw1185100 0.0 102810
06:00+8w1184100 0.0 102910
09:00+9ssw1182100 0.0 103027
12:00+10sw337539 0.0 1031202
15:00+10w348090 0.0 1032177
18:00+8w3389100 0.0 103247
21:00+8w348772 0.0 103348